Location: Gälforsberget
(66.6500°N, 22.4167°E)
Time: 19:28:54
(UTC+00:00)

Helios 1A - Pass Details

Date: 11 April 2026
Orbit: 540 x 559 km, 98.2° (Epoch: 19 May)

Event Time Altitude Azimuth Distance (km) Brightness Sun altitude
Rises 21:24:19 0° 21° (NNE) 2,766 7.3 -13.8°
Reaches altitude 10° 21:26:28 10° 22° (NNE) 1,865 6.3 -13.9°
Maximum altitude 21:30:31 80° 110° (ESE) 577 2.8 -14.0°
Enters shadow 21:33:15 20° 196° (SSW) 1,330 4.3 -14.0°
